EW7199 Weather Reports


Display with metric or nautical units.
time (UTC)temp
F
wind
direction
speed
MPH
gust
MPH
rain 1hr
in
rain 24hr
in
rain mn
in
humidity
%
barometer
mb
20260901173409 90 337 1.0 3.0 0.00 0.00 0.00 42 1014.5
20260901172909 90 307 1.0 3.0 0.00 0.00 0.00 42 1014.5
20260901172407 90 283 1.0 3.0 0.00 0.00 0.00 42 1014.4
20260901171909 90 335 2.0 3.0 0.00 0.00 0.00 42 1014.4
20260901171409 90 323 1.0 3.0 0.00 0.00 0.00 43 1014.3
20260901170408 90 22 1.0 3.0 0.00 0.00 0.00 45 1014.2
20260901165908 90 66 1.0 3.0 0.00 0.00 0.00 47 1014.2
20260901165408 90 307 1.0 3.0 0.00 0.00 0.00 49 1014.2
20260901164909 90 38 1.0 3.0 0.00 0.00 0.00 50 1014.2
20260901164408 90 47 2.0 3.0 0.00 0.00 0.00 51 1014.1
20260901163908 91 352 1.0 3.0 0.00 0.00 0.00 52 1014.0
20260901163406 91 55 1.0 3.0 0.00 0.00 0.00 52 1014.0
20260901162908 91 42 2.0 3.0 0.00 0.00 0.00 52 1014.0
20260901162407 91 66 2.0 3.0 0.00 0.00 0.00 52 1013.9
20260901161409 91 35 2.0 3.0 0.00 0.00 0.00 52 1014.0
20260901160907 92 48 3.0 3.0 0.00 0.00 0.00 51 1014.0
20260901160408 92 16 2.0 3.0 0.00 0.00 0.00 50 1014.0
20260901155908 92 69 2.0 3.0 0.00 0.00 0.00 50 1014.0
20260901155408 93 46 2.0 3.0 0.00 0.00 0.00 51 1014.0
20260901154908 93 84 1.0 3.0 0.00 0.00 0.00 52 1014.0
20260901154416 92 37 1.0 3.0 0.00 0.00 0.00 52 1014.0
20260901153408 92 45 3.0 3.0 0.00 0.00 0.00 50 1014.1
20260901152907 92 44 2.0 3.0 0.00 0.00 0.00 51 1014.0
20260901152407 92 48 3.0 3.0 0.00 0.00 0.00 51 1013.9
20260901151907 92 50 2.0 3.0 0.00 0.00 0.00 51 1014.0
20260901151407 93 52 3.0 3.0 0.00 0.00 0.00 50 1014.0
20260901150908 93 77 2.0 3.0 0.00 0.00 0.00 50 1013.9
20260901150408 92 66 2.0 5.0 0.00 0.00 0.00 51 1013.9
20260901145908 92 51 2.0 5.0 0.00 0.00 0.00 51 1013.9
20260901145407 92 35 2.0 3.0 0.00 0.00 0.00 51 1013.9
20260901144907 92 51 2.0 5.0 0.00 0.00 0.00 51 1013.9
20260901144408 93 52 3.0 3.0 0.00 0.00 0.00 51 1013.9
20260901143907 93 24 1.0 3.0 0.00 0.00 0.00 52 1013.9
20260901143408 92 54 3.0 3.0 0.00 0.00 0.00 53 1013.9
20260901142908 92 77 3.0 3.0 0.00 0.00 0.00 53 1013.9
20260901142408 92 64 2.0 3.0 0.00 0.00 0.00 54 1014.0
20260901141906 93 14 3.0 3.0 0.00 0.00 0.00 54 1014.0
20260901141409 92 30 2.0 3.0 0.00 0.00 0.00 55 1014.0
20260901140906 92 61 3.0 5.0 0.00 0.00 0.00 55 1014.0
20260901140407 91 63 2.0 5.0 0.00 0.00 0.00 57 1014.0
20260901134908 91 56 3.0 3.0 0.00 0.00 0.00 59 1014.1
20260901134408 91 49 2.0 3.0 0.00 0.00 0.00 59 1014.2
20260901133907 91 42 2.0 3.0 0.00 0.00 0.00 59 1014.1
20260901133407 91 359 2.0 3.0 0.00 0.00 0.00 59 1014.2
20260901132908 92 231 2.0 3.0 0.00 0.00 0.00 59 1014.2
20260901132407 92 309 2.0 3.0 0.00 0.00 0.00 53 1014.2
20260901130908 91 4 2.0 3.0 0.00 0.00 0.00 58 1014.4
20260901130408 91 325 2.0 3.0 0.00 0.00 0.00 57 1014.4
20260901125908 92 330 3.0 5.0 0.00 0.00 0.00 54 1014.4
20260901124908 91 338 2.0 8.0 0.00 0.00 0.00 59 1014.4
20260901124408 92 312 3.0 8.0 0.00 0.00 0.00 58 1014.4
20260901123907 91 19 2.0 3.0 0.00 0.00 0.00 60 1014.4
20260901123408 90 266 2.0 3.0 0.00 0.00 0.00 62 1014.3
20260901122907 89 236 3.0 5.0 0.00 0.00 0.00 63 1014.3
20260901122407 90 229 2.0 3.0 0.00 0.00 0.00 64 1014.4
20260901121408 89 251 3.0 3.0 0.00 0.00 0.00 63 1014.5
20260901120408 89 234 3.0 3.0 0.00 0.00 0.00 65 1014.6
20260901115908 88 231 2.0 3.0 0.00 0.00 0.00 68 1014.7
20260901115408 89 268 3.0 3.0 0.00 0.00 0.00 63 1014.8
20260901114907 88 233 2.0 3.0 0.00 0.00 0.00 65 1014.7
20260901113907 88 251 2.0 3.0 0.00 0.00 0.00 64 1014.6
20260901113407 88 232 2.0 3.0 0.00 0.00 0.00 64 1014.6
20260901112905 88 235 2.0 3.0 0.00 0.00 0.00 64 1014.6
20260901112406 88 240 3.0 3.0 0.00 0.00 0.00 64 1014.7
20260901111906 88 238 2.0 3.0 0.00 0.00 0.00 62 1014.6
20260901111407 88 248 2.0 3.0 0.00 0.00 0.00 60 1014.7
20260901110906 88 255 2.0 3.0 0.00 0.00 0.00 62 1014.7
20260901110406 88 280 2.0 3.0 0.00 0.00 0.00 64 1014.7
20260901105906 87 242 3.0 3.0 0.00 0.00 0.00 63 1014.7
20260901105406 88 239 2.0 3.0 0.00 0.00 0.00 63 1014.7
20260901104906 88 256 3.0 3.0 0.00 0.00 0.00 63 1014.8
20260901104406 87 262 2.0 3.0 0.00 0.00 0.00 62 1014.8
20260901103908 87 234 2.0 3.0 0.00 0.00 0.00 62 1014.9
20260901103406 87 271 2.0 3.0 0.00 0.00 0.00 67 1014.9
20260901102907 87 260 2.0 3.0 0.00 0.00 0.00 63 1014.9
20260901102407 87 258 2.0 3.0 0.00 0.00 0.00 64 1015.0
20260901101407 87 231 2.0 3.0 0.00 0.00 0.00 64 1015.1
20260901100906 86 252 2.0 3.0 0.00 0.00 0.00 67 1015.1
20260901100408 87 246 2.0 3.0 0.00 0.00 0.00 66 1015.1
20260901095908 86 249 2.0 3.0 0.00 0.00 0.00 66 1015.2
20260901095409 86 227 2.0 3.0 0.00 0.00 0.00 69 1015.2
20260901094908 85 227 2.0 3.0 0.00 0.00 0.00 71 1015.3
20260901094404 86 233 2.0 3.0 0.00 0.00 0.00 71 1015.3
20260901093904 85 236 2.0 3.0 0.00 0.00 0.00 72 1015.3
20260901093413 84 316 2.0 3.0 0.00 0.00 0.00 74 1015.4
20260901083409 84 241 2.0 3.0 0.00 0.00 0.00 75 1015.3
20260901082409 83 251 3.0 3.0 0.00 0.00 0.00 76 1015.3
20260901081910 83 243 3.0 5.0 0.00 0.00 0.00 76 1015.3
20260901081411 83 241 3.0 3.0 0.00 0.00 0.00 76 1015.3
20260901080910 83 268 2.0 3.0 0.00 0.00 0.00 76 1015.3
20260901075910 82 258 2.0 3.0 0.00 0.00 0.00 77 1015.2
20260901075409 82 248 2.0 3.0 0.00 0.00 0.00 77 1015.2
20260901074910 82 242 2.0 3.0 0.00 0.00 0.00 77 1015.2
20260901074412 82 237 3.0 3.0 0.00 0.00 0.00 77 1015.2
20260901073909 82 280 2.0 3.0 0.00 0.00 0.00 77 1015.1
20260901073410 82 265 3.0 3.0 0.00 0.00 0.00 78 1015.1
20260901072408 82 266 2.0 3.0 0.00 0.00 0.00 80 1015.1
20260901071911 82 302 3.0 3.0 0.00 0.00 0.00 80 1015.1
20260901071410 82 251 2.0 3.0 0.00 0.00 0.00 80 1015.0
20260901070910 82 285 2.0 3.0 0.00 0.00 0.00 81 1015.1
20260901070410 82 291 2.0 3.0 0.00 0.00 0.00 80 1015.0
20260901065910 82 284 2.0 3.0 0.00 0.00 0.00 81 1015.0
20260901065411 81 269 2.0 3.0 0.00 0.00 0.00 80 1015.0
20260901064410 81 289 2.0 3.0 0.00 0.00 0.00 81 1015.1
20260901063910 81 278 2.0 3.0 0.00 0.00 0.00 81 1015.1
20260901063410 81 272 2.0 3.0 0.00 0.00 0.00 81 1015.1
20260901062910 81 250 2.0 3.0 0.00 0.00 0.00 81 1015.0
20260901062408 81 239 2.0 3.0 0.00 0.00 0.00 81 1015.0
20260901061910 81 269 2.0 3.0 0.00 0.00 0.00 81 1015.0
20260901061409 81 263 2.0 3.0 0.00 0.00 0.00 81 1015.0
20260901055911 81 254 2.0 3.0 0.00 0.00 0.00 79 1014.9
20260901055410 81 271 2.0 2.0 0.00 0.00 0.00 78 1015.0
20260901054909 81 240 2.0 3.0 0.00 0.00 0.00 78 1015.0
20260901054410 81 241 2.0 3.0 0.00 0.00 0.00 78 1015.0
20260901053910 81 238 1.0 3.0 0.00 0.00 0.00 78 1015.0
20260901053410 81 255 1.0 3.0 0.00 0.00 0.00 78 1014.9
20260901052910 81 273 1.0 3.0 0.00 0.00 0.00 78 1014.9
20260901052410 81 270 1.0 3.0 0.00 0.00 0.00 78 1014.8
20260901051911 81 286 2.0 3.0 0.00 0.00 0.00 78 1014.8
20260901051410 81 267 2.0 3.0 0.00 0.00 0.00 78 1014.7
20260901050409 81 266 1.0 3.0 0.00 0.00 0.00 78 1014.7
20260901045910 81 0 0.0 3.0 0.00 0.00 0.00 78 1014.7
20260901045409 81 38 1.0 3.0 0.00 0.00 0.00 78 1014.6
20260901044910 81 287 1.0 3.0 0.00 0.00 0.00 78 1014.6
20260901043909 81 352 0.0 2.0 0.00 0.00 0.00 77 1014.6
20260901043410 81 318 2.0 3.0 0.00 0.00 0.00 77 1014.6
20260901042910 81 302 1.0 3.0 0.00 0.00 0.00 77 1014.5
20260901041910 81 289 0.0 3.0 0.00 0.00 0.00 77 1014.6
20260901041409 81 315 1.0 3.0 0.00 0.00 0.00 77 1014.6
20260901040910 81 31 1.0 2.0 0.00 0.00 0.00 77 1014.6
20260901040410 81 30 1.0 3.0 0.00 0.00 0.00 77 1014.6
20260901035411 81 30 0.0 3.0 0.00 0.00 0.00 76 1014.6
20260901034910 81 309 1.0 3.0 0.00 0.00 0.00 76 1014.6
20260901034410 81 62 1.0 2.0 0.00 0.00 0.00 77 1014.5
20260901033910 81 280 1.0 2.0 0.00 0.00 0.00 77 1014.4
20260901033409 81 302 2.0 2.0 0.00 0.00 0.00 77 1014.4
20260901032909 81 28 1.0 3.0 0.00 0.00 0.00 78 1014.3
20260901032409 81 26 1.0 2.0 0.00 0.00 0.00 77 1014.4
20260901031910 81 353 1.0 2.0 0.00 0.00 0.00 77 1014.3
20260901030910 81 315 1.0 2.0 0.00 0.00 0.00 76 1014.4
20260901030411 81 5 0.0 3.0 0.00 0.00 0.00 76 1014.4
20260901025911 81 25 1.0 2.0 0.00 0.00 0.00 76 1014.3
20260901025410 81 263 0.0 2.0 0.00 0.00 0.00 77 1014.3
20260901024410 81 241 1.0 2.0 0.00 0.00 0.00 77 1014.2
20260901023909 81 246 1.0 2.0 0.00 0.00 0.00 77 1014.1
20260901023411 81 207 0.0 2.0 0.00 0.00 0.00 76 1014.1
20260901022911 81 84 0.0 0.0 0.00 0.00 0.00 76 1014.1
20260901022410 81 84 0.0 0.0 0.00 0.00 0.00 76 1014.1
20260901021910 81 84 0.0 0.0 0.00 0.00 0.00 76 1014.1
20260901021410 81 84 0.0 0.0 0.00 0.00 0.00 76 1014.1
20260901020910 81 34 0.0 0.0 0.00 0.00 0.00 76 1014.1
20260901020411 81 34 0.0 0.0 0.00 0.00 0.00 75 1014.1
20260901015909 81 34 0.0 0.0 0.00 0.00 0.00 75 1014.1
20260901015410 81 34 0.0 0.0 0.00 0.00 0.00 75 1014.0
20260901014909 82 34 0.0 0.0 0.00 0.00 0.00 76 1014.0
20260901013910 81 42 0.0 3.0 0.00 0.00 0.00 76 1014.0
20260901012910 81 42 0.0 1.0 0.00 0.00 0.00 77 1013.9
20260901012410 81 42 0.0 1.0 0.00 0.00 0.00 78 1013.9
20260901011410 81 38 0.0 2.0 0.00 0.00 0.00 78 1013.9
20260901010910 81 41 1.0 2.0 0.00 0.00 0.00 79 1014.0
20260901010410 81 40 0.0 2.0 0.00 0.00 0.00 80 1014.0
20260901005909 81 29 1.0 3.0 0.00 0.00 0.00 80 1014.0
20260901004909 81 52 1.0 3.0 0.00 0.00 0.00 80 1014.0
20260901004409 81 42 0.0 2.0 0.00 0.00 0.00 80 1013.9
20260901003909 81 46 1.0 2.0 0.00 0.00 0.00 81 1013.9
20260901003410 82 5 0.0 1.0 0.00 0.00 0.00 81 1013.9
20260901002909 82 357 1.0 2.0 0.00 0.00 0.00 81 1013.9
20260901002409 81 274 0.0 0.0 0.00 0.00 0.00 82 1013.9
20260901001410 81 283 0.0 1.0 0.00 0.00 0.00 83 1013.9
20260901000909 81 22 1.0 3.0 0.00 0.00 0.00 83 1013.9
20260901000409 82 40 1.0 3.0 0.00 0.00 0.00 83 1014.0
20260831235410 82 92 1.0 3.0 0.00 0.00 0.00 82 1013.9
20260831234910 82 86 1.0 3.0 0.00 0.00 0.00 82 1013.9
20260831234409 82 73 1.0 3.0 0.00 0.00 0.00 82 1013.9
20260831233910 82 87 1.0 3.0 0.00 0.00 0.00 81 1013.9
20260831233409 82 87 2.0 3.0 0.00 0.00 0.00 80 1013.9
20260831232410 82 74 0.0 3.0 0.00 0.00 0.00 79 1013.9
20260831231910 82 62 1.0 3.0 0.00 0.00 0.00 79 1014.0
20260831231410 82 73 1.0 3.0 0.00 0.00 0.00 79 1013.9
20260831230910 82 85 1.0 3.0 0.00 0.00 0.00 79 1014.0
20260831225910 82 135 1.0 3.0 0.00 0.00 0.00 78 1013.9
20260831225410 83 140 1.0 3.0 0.00 0.00 0.00 78 1013.9
20260831224910 83 117 2.0 3.0 0.00 0.00 0.00 78 1013.9
20260831224410 83 136 1.0 2.0 0.00 0.00 0.00 78 1013.8
20260831223910 83 133 1.0 3.0 0.00 0.00 0.00 78 1013.8
20260831223410 83 121 1.0 3.0 0.00 0.00 0.00 77 1013.7
20260831222910 83 133 1.0 3.0 0.00 0.00 0.00 77 1013.7
20260831221910 83 125 1.0 3.0 0.00 0.00 0.00 76 1013.7
20260831221410 83 115 1.0 3.0 0.00 0.00 0.00 76 1013.7
20260831220410 84 94 0.0 2.0 0.00 0.00 0.00 76 1013.7
20260831215910 84 94 0.0 3.0 0.00 0.00 0.00 76 1013.7
20260831215410 84 105 2.0 3.0 0.00 0.00 0.00 75 1013.7
20260831214908 84 102 1.0 3.0 0.00 0.00 0.00 75 1013.7
20260831214410 85 99 2.0 3.0 0.00 0.00 0.00 74 1013.6
20260831213908 85 99 2.0 3.0 0.00 0.00 0.00 73 1013.5
20260831212909 85 99 0.0 2.0 0.00 0.00 0.00 72 1013.5
20260831212410 85 98 0.0 2.0 0.00 0.00 0.00 72 1013.6
20260831211908 86 94 0.0 1.0 0.00 0.00 0.00 71 1013.5
20260831211409 86 94 1.0 3.0 0.00 0.00 0.00 70 1013.5
20260831210909 86 93 1.0 3.0 0.00 0.00 0.00 69 1013.5
20260831210410 86 103 1.0 2.0 0.00 0.00 0.00 69 1013.4
20260831205909 86 105 0.0 1.0 0.00 0.00 0.00 69 1013.4
20260831205409 86 105 0.0 1.0 0.00 0.00 0.00 69 1013.3
20260831204909 86 104 0.0 1.0 0.00 0.00 0.00 69 1013.3
20260831204409 86 103 0.0 1.0 0.00 0.00 0.00 68 1013.2
20260831203909 86 103 0.0 2.0 0.00 0.00 0.00 68 1013.2
20260831203410 86 103 1.0 3.0 0.00 0.00 0.00 68 1013.2
20260831202908 86 105 0.0 0.0 0.00 0.00 0.00 67 1013.2
20260831202409 86 103 0.0 2.0 0.00 0.00 0.00 67 1013.1
20260831201910 86 103 0.0 1.0 0.00 0.00 0.00 67 1013.1
20260831201409 87 103 1.0 2.0 0.00 0.00 0.00 67 1013.1
20260831200410 87 100 2.0 3.0 0.00 0.00 0.00 66 1013.1
20260831194910 86 238 1.0 2.0 0.00 0.00 0.00 66 1013.0
20260831194410 86 240 1.0 2.0 0.00 0.00 0.00 66 1013.0
20260831193909 86 261 1.0 2.0 0.00 0.00 0.00 68 1013.0
20260831193410 86 272 1.0 2.0 0.00 0.00 0.00 69 1013.0
20260831192909 86 269 1.0 2.0 0.00 0.00 0.00 69 1013.0
20260831191911 86 241 1.0 2.0 0.00 0.00 0.00 71 1013.0
20260831191409 86 251 2.0 3.0 0.00 0.00 0.00 70 1013.0
20260831190910 86 249 1.0 2.0 0.00 0.00 0.00 70 1013.0
20260831190410 86 243 1.0 2.0 0.00 0.00 0.00 69 1012.9
20260831185910 87 262 1.0 3.0 0.00 0.00 0.00 69 1012.9
20260831185410 86 268 1.0 3.0 0.00 0.00 0.00 68 1012.9
20260831184910 86 247 2.0 3.0 0.00 0.00 0.00 69 1012.9
20260831184410 86 271 1.0 3.0 0.00 0.00 0.00 69 1012.9
20260831183909 86 270 2.0 3.0 0.00 0.00 0.00 69 1012.8
20260831183409 86 285 2.0 3.0 0.00 0.00 0.00 68 1012.8
20260831182910 86 268 2.0 3.0 0.00 0.00 0.00 69 1012.6
20260831182410 86 264 2.0 3.0 0.00 0.00 0.00 70 1012.5
20260831181909 87 259 2.0 3.0 0.00 0.00 0.00 69 1012.4
20260831180910 87 264 2.0 3.0 0.00 0.00 0.00 69 1012.2
20260831180409 86 251 1.0 2.0 0.00 0.00 0.00 68 1012.2
20260831175910 86 269 1.0 2.0 0.00 0.00 0.00 70 1012.2
20260831175409 86 262 1.0 2.0 0.00 0.00 0.00 71 1012.3
20260831173909 87 249 2.0 3.0 0.00 0.00 0.00 72 1012.3